Voltar ao catálogo

CO-55

CUTE-1

AtivoRádio AmadorSSO
NORAD 27844·PAYLOAD·🇯🇵 Japan

Lançado Jun 30, 2003 de Plesetsk Cosmodrome

Loading…

Próximas Passagens (próximas 24 horas)

TLE

AtualizadoSource: Space-Track

Época: Sep 14, 2026, 11:04 UTC

1 27844U 03031E   26257.46130458  .00000192  00000-0  10189-3 0  9999
2 27844  98.6770 264.9125 0008427 289.0249  71.0017 14.24381067204387

Acompanhe CO-55 em tempo real com AllMySat

Download on the App Store